When you browse on this site, cookies collect data to enhance your experience and personalize the content and advertising you see.
Visit our Privacy Policy to learn more. By continuing to use the site, you agree to this use of cookies and data.
  • Em Portugal
  • Lista de países
  • Para 7 dias
  • Temperatura da água
  • Mapas de satélite
  • Mapa do tempo
  • Widgets de tempo
  • user-avatar
    Iniciar Sessão

    Previsão horária em Lipovec

    Hoje, 19 Abril, Sexta-feira

    Tempo Temperatura Precipitação Vento Pressão Humidade
    00:00 +8°C° 0.4 mm 2 m/s 744 mmHg 69%
    01:00 +8°C° 0.4 mm 2 m/s 744 mmHg 76%
    02:00 +8°C° 0 mm 1 m/s 744 mmHg 80%
    03:00 +7°C° 0.1 mm 1 m/s 744 mmHg 81%
    04:00 +6°C° 0.1 mm 2 m/s 744 mmHg 83%
    05:00 +5°C° 0.1 mm 2 m/s 743 mmHg 84%
    06:00 +7°C° 0 mm 3 m/s 744 mmHg 81%
    07:00 +8°C° 0 mm 3 m/s 744 mmHg 77%
    08:00 +8°C° 0 mm 5 m/s 745 mmHg 71%
    09:00 +9°C° 0.2 mm 5 m/s 745 mmHg 64%
    10:00 +10°C° 0.2 mm 6 m/s 745 mmHg 58%
    11:00 +11°C° 0.2 mm 7 m/s 746 mmHg 51%
    12:00 +11°C° 0.2 mm 7 m/s 746 mmHg 49%
    13:00 +11°C° 0.2 mm 6 m/s 746 mmHg 48%
    14:00 +11°C° 0.2 mm 6 m/s 746 mmHg 47%
    15:00 +11°C° 0.1 mm 6 m/s 746 mmHg 48%
    16:00 +10°C° 0.1 mm 6 m/s 746 mmHg 49%
    17:00 +10°C° 0.1 mm 5 m/s 747 mmHg 50%
    18:00 +10°C° 0.1 mm 4 m/s 747 mmHg 56%
    19:00 +7°C° 0.1 mm 4 m/s 747 mmHg 62%
    20:00 +7°C° 0.1 mm 3 m/s 747 mmHg 68%
    21:00 +7°C° 0 mm 2 m/s 748 mmHg 69%
    22:00 +6°C° 0 mm 2 m/s 748 mmHg 71%
    23:00 +5°C° 0 mm 2 m/s 748 mmHg 73%

    Amanhã, 20 Abril, Sábado

    Tempo Temperatura Precipitação Vento Pressão Humidade
    00:00 +5°C° 0 mm 2 m/s 748 mmHg 73%
    01:00 +5°C° 0 mm 2 m/s 748 mmHg 73%
    02:00 +4°C° 0 mm 2 m/s 748 mmHg 73%
    03:00 +4°C° 0 mm 2 m/s 748 mmHg 74%
    04:00 +4°C° 0 mm 2 m/s 748 mmHg 75%
    05:00 +3°C° 0 mm 2 m/s 748 mmHg 75%
    06:00 +5°C° 0 mm 2 m/s 748 mmHg 69%
    07:00 +7°C° 0 mm 2 m/s 748 mmHg 64%
    08:00 +8°C° 0 mm 2 m/s 748 mmHg 58%
    09:00 +9°C° 0 mm 2 m/s 748 mmHg 52%
    10:00 +10°C° 0 mm 2 m/s 748 mmHg 47%
    11:00 +12°C° 0 mm 2 m/s 748 mmHg 41%
    12:00 +12°C° 0 mm 2 m/s 748 mmHg 41%
    13:00 +12°C° 0 mm 2 m/s 747 mmHg 42%
    14:00 +13°C° 0 mm 2 m/s 747 mmHg 42%
    15:00 +12°C° 0 mm 1 m/s 747 mmHg 45%
    16:00 +12°C° 0 mm 1 m/s 747 mmHg 48%
    17:00 +12°C° 0 mm 1 m/s 746 mmHg 51%
    18:00 +11°C° 0 mm 1 m/s 746 mmHg 52%
    19:00 +10°C° 0 mm 1 m/s 746 mmHg 54%
    20:00 +10°C° 0 mm 1 m/s 746 mmHg 56%
    21:00 +9°C° 0 mm 1 m/s 746 mmHg 57%
    22:00 +9°C° 0 mm 1 m/s 746 mmHg 59%
    23:00 +8°C° 0 mm 2 m/s 746 mmHg 60%

    Depois de amanhã, 21 Abril, Domingo

    Tempo Temperatura Precipitação Vento Pressão Humidade
    00:00 +7°C° 0 mm 2 m/s 745 mmHg 62%
    01:00 +7°C° 0 mm 2 m/s 745 mmHg 63%
    02:00 +7°C° 0 mm 2 m/s 745 mmHg 65%
    03:00 +7°C° 0 mm 2 m/s 745 mmHg 66%
    04:00 +6°C° 0 mm 2 m/s 745 mmHg 68%
    05:00 +6°C° 0 mm 2 m/s 744 mmHg 69%
    06:00 +7°C° 0.1 mm 2 m/s 745 mmHg 69%
    07:00 +8°C° 0.1 mm 2 m/s 745 mmHg 68%
    08:00 +8°C° 0.1 mm 2 m/s 745 mmHg 67%
    09:00 +9°C° 0.1 mm 3 m/s 745 mmHg 62%
    10:00 +10°C° 0.1 mm 3 m/s 745 mmHg 58%
    11:00 +11°C° 0.1 mm 3 m/s 745 mmHg 53%
    12:00 +12°C° 0.1 mm 3 m/s 745 mmHg 52%
    13:00 +12°C° 0.1 mm 3 m/s 745 mmHg 51%
    14:00 +12°C° 0.1 mm 3 m/s 745 mmHg 49%
    15:00 +12°C° 0 mm 4 m/s 745 mmHg 48%
    16:00 +12°C° 0 mm 4 m/s 745 mmHg 48%
    17:00 +12°C° 0 mm 4 m/s 745 mmHg 47%
    18:00 +10°C° 0 mm 4 m/s 745 mmHg 51%
    19:00 +9°C° 0 mm 3 m/s 745 mmHg 56%
    20:00 +8°C° 0 mm 3 m/s 745 mmHg 60%
    21:00 +7°C° 0 mm 3 m/s 746 mmHg 61%
    22:00 +7°C° 0 mm 3 m/s 746 mmHg 61%
    23:00 +7°C° 0 mm 2 m/s 746 mmHg 61%

    22 Abril, Segunda-feira

    Tempo Temperatura Precipitação Vento Pressão Humidade
    00:00 +7°C° 0 mm 2 m/s 746 mmHg 62%
    01:00 +7°C° 0 mm 2 m/s 747 mmHg 64%
    02:00 +7°C° 0 mm 2 m/s 747 mmHg 65%
    03:00 +6°C° 0 mm 2 m/s 747 mmHg 67%
    04:00 +5°C° 0 mm 2 m/s 747 mmHg 69%
    05:00 +5°C° 0 mm 2 m/s 747 mmHg 70%
    06:00 +5°C° 0 mm 3 m/s 747 mmHg 65%
    07:00 +8°C° 0 mm 3 m/s 748 mmHg 60%
    08:00 +10°C° 0 mm 4 m/s 748 mmHg 55%
    09:00 +10°C° 0 mm 4 m/s 748 mmHg 51%
    10:00 +11°C° 0 mm 4 m/s 748 mmHg 47%
    11:00 +12°C° 0 mm 5 m/s 748 mmHg 43%
    12:00 +12°C° 0 mm 4 m/s 748 mmHg 44%
    13:00 +12°C° 0 mm 4 m/s 748 mmHg 45%
    14:00 +12°C° 0 mm 4 m/s 748 mmHg 46%
    15:00 +12°C° 0 mm 4 m/s 748 mmHg 46%
    16:00 +12°C° 0 mm 4 m/s 748 mmHg 47%
    17:00 +12°C° 0 mm 4 m/s 748 mmHg 47%
    18:00 +11°C° 0 mm 3 m/s 748 mmHg 52%
    19:00 +10°C° 0 mm 3 m/s 748 mmHg 56%
    20:00 +9°C° 0 mm 3 m/s 748 mmHg 61%
    21:00 +8°C° 0 mm 3 m/s 749 mmHg 62%
    22:00 +7°C° 0 mm 3 m/s 749 mmHg 64%
    23:00 +7°C° 0 mm 3 m/s 749 mmHg 65%

    23 Abril, Terça-feira

    Tempo Temperatura Precipitação Vento Pressão Humidade
    00:00 +5°C° 0 mm 3 m/s 749 mmHg 65%
    01:00 +5°C° 0 mm 3 m/s 749 mmHg 65%
    02:00 +5°C° 0 mm 3 m/s 749 mmHg 66%
    03:00 +4°C° 0 mm 3 m/s 749 mmHg 67%
    04:00 +4°C° 0 mm 3 m/s 749 mmHg 69%
    05:00 +3°C° 0 mm 3 m/s 749 mmHg 71%
    06:00 +5°C° 0 mm 3 m/s 749 mmHg 67%
    07:00 +7°C° 0 mm 4 m/s 750 mmHg 63%
    08:00 +8°C° 0 mm 4 m/s 750 mmHg 59%
    09:00 +10°C° 0 mm 5 m/s 750 mmHg 54%
    10:00 +12°C° 0 mm 5 m/s 750 mmHg 50%
    11:00 +13°C° 0 mm 5 m/s 750 mmHg 45%
    12:00 +14°C° 0 mm 5 m/s 750 mmHg 45%
    13:00 +14°C° 0 mm 5 m/s 750 mmHg 44%
    14:00 +14°C° 0 mm 5 m/s 749 mmHg 44%
    15:00 +14°C° 0 mm 5 m/s 749 mmHg 45%
    16:00 +14°C° 0 mm 5 m/s 749 mmHg 46%
    17:00 +13°C° 0 mm 5 m/s 749 mmHg 47%
    18:00 +12°C° 0 mm 5 m/s 749 mmHg 50%
    19:00 +11°C° 0 mm 4 m/s 749 mmHg 53%
    20:00 +10°C° 0 mm 4 m/s 749 mmHg 56%
    21:00 +10°C° 0 mm 4 m/s 749 mmHg 56%
    22:00 +10°C° 0 mm 4 m/s 749 mmHg 56%
    23:00 +10°C° 0 mm 4 m/s 749 mmHg 55%

    24 Abril, Quarta-feira

    Tempo Temperatura Precipitação Vento Pressão Humidade
    00:00 +8°C° 0 mm 4 m/s 749 mmHg 58%
    01:00 +7°C° 0 mm 4 m/s 749 mmHg 61%
    02:00 +7°C° 0 mm 3 m/s 749 mmHg 64%
    03:00 +7°C° 0 mm 3 m/s 749 mmHg 66%
    04:00 +5°C° 0 mm 3 m/s 749 mmHg 67%
    05:00 +4°C° 0 mm 3 m/s 749 mmHg 69%
    06:00 +6°C° 0 mm 4 m/s 749 mmHg 64%
    07:00 +8°C° 0 mm 5 m/s 750 mmHg 59%
    08:00 +9°C° 0 mm 6 m/s 750 mmHg 55%
    09:00 +11°C° 0 mm 6 m/s 750 mmHg 52%
    10:00 +13°C° 0 mm 6 m/s 750 mmHg 49%
    11:00 +14°C° 0 mm 6 m/s 750 mmHg 46%
    12:00 +14°C° 0 mm 6 m/s 749 mmHg 45%
    13:00 +15°C° 0 mm 6 m/s 749 mmHg 45%
    14:00 +15°C° 0 mm 6 m/s 749 mmHg 44%
    15:00 +15°C° 0 mm 6 m/s 749 mmHg 44%
    16:00 +15°C° 0 mm 5 m/s 749 mmHg 45%
    17:00 +15°C° 0 mm 5 m/s 748 mmHg 46%
    18:00 +14°C° 0 mm 4 m/s 748 mmHg 50%
    19:00 +12°C° 0 mm 4 m/s 748 mmHg 55%
    20:00 +10°C° 0 mm 3 m/s 748 mmHg 60%
    21:00 +10°C° 0 mm 3 m/s 748 mmHg 62%
    22:00 +9°C° 0 mm 3 m/s 748 mmHg 63%
    23:00 +9°C° 0 mm 3 m/s 748 mmHg 65%
    Mostrar mais